Regional Weather Roundup
Issued by NWS

Home | Current Version | Previous Version | Graphics & Text | Print | Product List | Glossary On
Versions: 1 2 3 4 5 6 7 8 9 10 11 12 13 14 15 16 17 18 19 20 21 22 23 24 25 26 27 28 29 30 31 32 33 34 35 36 37 38 39 40 41 42 43 44 45 46 47 48 49 50
000
ASUS45 KBOU 241907
RWRCO

WEATHER ROUNDUP FOR COLORADO
NATIONAL WEATHER SERVICE DENVER/BOULDER CO
1200 PM MST TUE JAN 24 2017

NOTE: "FAIR" INDICATES FEW OR NO CLOUDS BELOW 12000 FEET WITH NO
SIGNIFICANT WEATHER AND/OR OBSTRUCTIONS TO VISIBILITY.

COZ001>005-013-030-031-242000-
...NORTHWEST COLORADO...

CITY           SKY/WX    TMP DP  RH WIND       PRES   REMARKS
CRAIG          CLOUDY    24  17  74 SW8       29.67F WCI  15
HAYDEN         FAIR      21  16  79 W9        29.64F WCI  11
MEEKER         LGT SNOW  26  23  88 CALM      29.66S FOG
MOUNT WERNER   NOT AVBL
STEAMBOAT SPGS CLOUDY    22  17  81 SW8       29.62S WCI  12
WALDEN           N/A     18  10  73 CALM      29.57S
$$

COZ006>008-011-242000-
...WEST CENTRAL VALLEYS...

CITY           SKY/WX    TMP DP  RH WIND       PRES   REMARKS
GRAND JUNCTION FAIR      33  28  81 N3        29.69S
MONTROSE       PTSUNNY   32  25  75 CALM      29.67F
EAGLE          LGT SNOW  25  19  80 CALM      29.63F
RIFLE          PTSUNNY   32  26  78 W14       29.64F WCI  22
DELTA          FAIR      40  25  56 W15       29.66F
NUCLA          CLOUDY    32  23  69 N5        29.70F WCI  27
$$

COZ017>023-064>068-242000-
...SOUTHWEST COLORADO...

CITY           SKY/WX    TMP DP  RH WIND       PRES   REMARKS
DURANGO        PTSUNNY   27  19  72 W16       29.66S WCI  15
CORTEZ         FLURRIES  29  27  92 S17       29.70S WCI  17
PAGOSA SPRINGS LGT SNOW  27  23  87 SW13G18   29.63S WCI  16
TELLURIDE        N/A     20  15  78 W8        29.61S WCI  11
WOLF CREEK PAS CLOUDY     9   7  92 S25G32    29.54F WCI -13
$$

COZ009-010-012-014-032>034-037-058>063-242000-
...CENTRAL COLORADO...

CITY           SKY/WX    TMP DP  RH WIND       PRES   REMARKS
ASPEN          PTSUNNY   23  17  78 CALM      29.56F
BUENA VISTA    FAIR      26  10  50 NW12      29.51F WCI  16
COPPER MTN     CLOUDY    12   5  73 MISG      29.48F HAZE
BERTHOUD PASS  NOT AVBL
COTTONWOOD PAS FAIR      27   3  36 SW12G18   29.50S WCI  16
GUNNISON       MIX PCPN  18  13  80 CALM      29.60F
KREMMLING      FAIR      25  14  63 CALM      29.61S
LEADVILLE      FLURRIES  17   6  62 NW5       29.50F WCI  10
MONARCH PASS   CLOUDY     9   5  85 NW8       29.57F WCI  -4
SALIDA         PTSUNNY   28  13  52 N3        29.60F
SUNLIGHT       CLOUDY   N/A N/A N/A MISG      29.57S
WILKERSON PASS PTSUNNY   16   5  62 NW8       29.50S WCI   5
$$

COZ069>075-242000-
...SAN LUIS VALLEY/SANGRE DE CRISTO MOUNTAINS...

CITY           SKY/WX    TMP DP  RH WIND       PRES   REMARKS
ALAMOSA        FAIR      29  20  69 CALM      29.54F
LA VETA PASS   PTSUNNY   23  18  80 NE24G33   29.49S WCI   7
SAGUACHE       FAIR      28  14  54 NW7       29.55S WCI  21
$$

COZ035-036-038>040-242000-
...NORTHERN COLORADO FRONT RANGE...

CITY           SKY/WX    TMP DP  RH WIND       PRES   REMARKS
DENVER INTL AP CLOUDY    25  22  88 N15       29.59S WCI  13
DMNS CITY PARK   N/A     26  23  91 NE9       29.60S WCI  16
AURORA         CLOUDY    24  24 100 NE10      29.58F WCI  13
FRONT RANGE AP CLOUDY    27  25  93 N17       29.60S WCI  14
ERIE MUNI ARPT CLOUDY    28  24  87 NE7       29.62S WCI  20
BOULDER MUN AP MIX PCPN  28  27  93 E3        29.61S
CENTENNIAL     SNOW      25  24  96 N14       29.57S VSB 1/2 WCI  13
BROOMFIELD     LGTSLEET  27  25  93 NE9       29.60F FOG     WCI  17
FORT COLLINS     N/A     28  23  81 NE10      29.62S WCI  19
LONGMONT       CLOUDY    30  26  84 E7        29.64S WCI  23
$$

COZ041-046-047-076>085-087-088-242000-
...PIKES PEAK/PALMER DIVIDE AND SOUTHERN FOOTHILLS...

CITY           SKY/WX    TMP DP  RH WIND       PRES   REMARKS
COLO. SPRINGS  PTSUNNY   36  18  48 N20G29    29.50F
A. F. ACADEMY  FAIR      32  17  52 N24G31    29.49F WCI  19
SCHRIEVER AFB  FAIR      34  20  55 N22G29    29.49F WCI  22
ELLICOTT       FAIR     N/A N/A N/A N22       29.49S
FALCON         PTSUNNY   31  22  68 N21G26    29.50F WCI  19
FORT CARSON    PTSUNNY   37  17  43 N15       29.48F
LIMON          CLOUDY    25  25 100 N23G29    29.53F FOG     WCI  10
MONUMENT HILL  SNOW      23  23 100 N12       29.53F VSB 1/4 WCI  12
TRINIDAD       CLOUDY    38  24  57 W21       29.49F
$$

COZ042>045-048>051-090-091-242000-
...NORTHEAST COLORADO...

CITY           SKY/WX    TMP DP  RH WIND       PRES   REMARKS
GREELEY ARPT   CLOUDY    27  21  78 N13       29.64F WCI  16
AKRON          CLOUDY    23  20  88 N21       29.57F WCI   8
BURLINGTON     CLOUDY    30  27  88 N22G32    29.50F WCI  17
WRAY           NOT AVBL
STERLING       FAIR      30  23  74 N18G26    29.60S WCI  18
HOLYOKE        FLURRIES  32  28  86 N23G29    29.57S WCI  19
FORT MORGAN    PTSUNNY   28  18  65 N17G23    29.61F WCI  16
$$

COZ086-089-092>099-242000-
...SOUTHEAST COLORADO...

CITY           SKY/WX    TMP DP  RH WIND       PRES   REMARKS
PUEBLO         CLOUDY    42  23  46 N17       29.51S
LA JUNTA       PTSUNNY   40  30  67 N18       29.52S
LAMAR          PTSUNNY   41  30  65 N20       29.49F
SPRINGFIELD      N/A     47  27  45 N12       29.46F
$$



USA.gov is the U.S. government's official web portal to all federal, state and local government web resources and services.